Location: Izdebno
(52.6670°N, 16.2170°E)
Time: 05:32:14
(UTC+02:00)

A-11 Canister half - Pass Details

Date: 08 February 2023
Orbit: 1526 x 1682 km, 47.3° (Epoch: 25 March)

Event Time Altitude Azimuth Distance (km) Brightness Sun altitude
Rises 04:04:24 0° 213° (SSW) 4,681 - -30.7°
Reaches altitude 10° 04:07:46 10° 205° (SSW) 3,692 - -30.2°
Exits shadow 04:11:02 22° 190° (S) 2,864 10.2 -29.7°
Maximum altitude 04:15:49 35° 144° (SE) 2,288 10.0 -29.0°
Drops below altitude 10° 04:23:54 10° 84° (E) 3,716 12.0 -27.8°
Sets 04:27:17 0° 76° (ENE) 4,716 12.9 -27.3°
